Tracking 30918 objects as of 2-Jul-2025
HD Live streaming from Space Station
objects crossing your sky now

STARLINK-4406

Track STARLINK-4406 now!
10-day predictions


NORAD ID: 53667
Int'l Code: 2022-105V
Perigee: 566.8 km
Apogee: 573.5 km
Inclination: 97.7 °
Period: 95.9 minutes
Semi major axis: 6941 km
RCS: Unknown
Launch date: August 31, 2022
Source: United States (US)
Launch site: AIR FORCE WESTERN TEST RANGE (AFWTR)
Your satellite tracking list
NATO 3D
Track 1 satellite(s)




NASA's NSSDC Master Catalog

Two Line Element Set (TLE):
1 53667U 22105V   25182.94134330 -.00000181  00000-0 -94645-5 0  9997
2 53667  97.6559  64.3446 0004863  52.3793 307.7872 15.01258747155619
Source of the keplerian elements: AFSPC